User: anonymous   Login
Location: STAR School
(35.3054°N, 111.2976°W)
Time: 11:47:37
(UTC-07:00)
Language:

A-11 Canister half - Orbit

View from above orbital plane
View from above orbital plane
View from above satellite
View from above satellite

Ground track
Ground track

The orbit data is extracted from the following two-line orbital elements,

1    53U 60009E   19136.90554991 -.00000079 +00000-0 +58735-4 0  9994
2    53 047.2782 044.9365 0100224 346.6918 013.1233 12.17227338620149
Epoch (UTC): 16 May 2019 21:43:59
Eccentricity: 0.0100224
inclination: 47.2782°
perigee height: 1524 km
apogee height: 1684 km
right ascension of ascending node: 44.9365°
argument of perigee: 346.6918°
revolutions per day: 12.17227338
mean anomaly at epoch: 13.1233°
orbit number at epoch: 62014

The dashed part of the orbit path shows where the satellite is in the earth's shadow,  

DLR